This is the latest recevied weather packets stored in our database for station/object KI6SYE. If no packets are shown the sender has not sent any weather packets the latest 1 day(s).
| Time | Temp. | Humidity | Pressure | Rain* | Wind** | Luminosity | Snow |
|---|---|---|---|---|---|---|---|
| 1778010368 | 17.78° C | 69% | 1015 hPa | 0 mm | 1.79 m/s, 216° | 971 W/m² | - |
| 1778010063 | 17.22° C | 71% | 1015.3 hPa | 0 mm | 1.79 m/s, 269° | 886 W/m² | - |
| 1778009761 | 16.67° C | 71% | 1015.2 hPa | 0 mm | 2.24 m/s, 257° | 869 W/m² | - |
| 1778009458 | 17.22° C | 70% | 1015.4 hPa | 0 mm | 2.68 m/s, 209° | 866 W/m² | - |
| 1778009157 | 16.67° C | 71% | 1015.2 hPa | 0 mm | 1.79 m/s, 312° | 713 W/m² | - |
| 1778008853 | 16.67° C | 73% | 1015.4 hPa | 0 mm | 2.68 m/s, 291° | 440 W/m² | - |
| 1778008552 | 16.67° C | 71% | 1015.3 hPa | 0 mm | 4.92 m/s, 257° | 560 W/m² | - |
| 1778008249 | 16.67° C | 72% | 1015.3 hPa | 0 mm | 1.79 m/s, 250° | 733 W/m² | - |
| 1778007943 | 16.11° C | 74% | 1015.3 hPa | 0 mm | 3.13 m/s, 303° | 577 W/m² | - |
| 1778007640 | 16.67° C | 72% | 1015.4 hPa | 0 mm | 2.68 m/s, 260° | 837 W/m² | - |
| 1778007337 | 16.67° C | 70% | 1015.2 hPa | 0 mm | 2.24 m/s, 262° | 689 W/m² | - |
| 1778007033 | 17.22° C | 71% | 1015.3 hPa | 0 mm | 3.58 m/s, 230° | 631 W/m² | - |
| 1778006730 | 16.67° C | 70% | 1015.3 hPa | 0 mm | 3.58 m/s, 250° | 708 W/m² | - |
| 1778006427 | 16.67° C | 73% | 1015.5 hPa | 0 mm | 4.92 m/s, 287° | 503 W/m² | - |
| 1778006124 | 16.67° C | 74% | 1015.4 hPa | 0 mm | 1.79 m/s, 324° | 697 W/m² | - |
| 1778005822 | 16.11° C | 73% | 1015.5 hPa | 0 mm | 2.24 m/s, 235° | 440 W/m² | - |
| 1778005518 | 16.11° C | 73% | 1015.2 hPa | 0 mm | 2.68 m/s, 271° | 339 W/m² | - |
| 1778005214 | 16.11° C | 73% | 1015.3 hPa | 0 mm | 2.68 m/s, 258° | 346 W/m² | - |
| 1778004911 | 16.11° C | 73% | 1015.3 hPa | 0 mm | 3.58 m/s, 254° | 703 W/m² | - |
| 1778004608 | 16.67° C | 73% | 1015.3 hPa | 0 mm | 1.34 m/s, 288° | 392 W/m² | - |
| 1778004303 | 16.11° C | 74% | 1015.2 hPa | 0 mm | 2.24 m/s, 234° | 325 W/m² | - |
| 1778004001 | 16.67° C | 73% | 1015.1 hPa | 0 mm | 2.24 m/s, 254° | 371 W/m² | - |
| 1778003697 | 16.67° C | 74% | 1015 hPa | 0 mm | 3.13 m/s, 282° | 746 W/m² | - |
| 1778003394 | 16.67° C | 74% | 1015.2 hPa | 0 mm | 2.24 m/s, 246° | 788 W/m² | - |
| 1778003091 | 16.67° C | 74% | 1014.9 hPa | 0 mm | 2.24 m/s, 279° | 708 W/m² | - |
* Rain latest hour (hover to see other rain measurements)
** Current wind speed in m/s (hover to see current wind gust speed)